| time (UTC) | temp F | wind direction | speed knots | gust knots | rain 1hr in | rain 24hr in | rain mn in | humidity % | barometer mb |
| 20260905134553 | 55 | 157 | 1.7 | 0.0 | 0.00 | 0.00 | 0.00 | 17 | 1006.3 |
| 20260905133050 | 55 | 191 | 0.9 | 0.0 | 0.00 | 0.00 | 0.00 | 16 | 1006.0 |
| 20260905131558 | 55 | 198 | 1.7 | 0.0 | 0.00 | 0.00 | 0.00 | 18 | 1005.8 |
| 20260905130048 | 55 | 124 | 0.9 | 0.0 | 0.00 | 0.00 | 0.00 | 20 | 1005.3 |
| 20260905124547 | 54 | 154 | 0.0 | 0.0 | 0.00 | 0.00 | 0.00 | 21 | 1005.2 |
| 20260905123104 | 55 | 148 | 0.9 | 0.0 | 0.00 | 0.00 | 0.00 | 21 | 1005.1 |
| 20260905121544 | 55 | 179 | 0.9 | 0.0 | 0.00 | 0.00 | 0.00 | 21 | 1005.2 |
| 20260905120043 | 54 | 138 | 0.0 | 0.0 | 0.00 | 0.00 | 0.00 | 22 | 1004.6 |
| 20260905114545 | 54 | 152 | 0.0 | 0.0 | 0.00 | 0.00 | 0.00 | 23 | 1004.4 |
| 20260905113041 | 53 | 160 | 0.0 | 0.0 | 0.00 | 0.00 | 0.00 | 25 | 1004.4 |
| 20260905111541 | 54 | 143 | 0.0 | 0.0 | 0.00 | 0.00 | 0.00 | 25 | 1004.6 |
| 20260905110039 | 54 | 172 | 0.0 | 0.0 | 0.00 | 0.00 | 0.00 | 26 | 1004.1 |
| 20260905104539 | 54 | 126 | 0.0 | 0.0 | 0.00 | 0.00 | 0.00 | 26 | 1004.2 |
| 20260905103048 | 53 | 172 | 0.0 | 0.0 | 0.00 | 0.00 | 0.00 | 26 | 1004.1 |
| 20260905101537 | 54 | 138 | 0.9 | 0.0 | 0.00 | 0.00 | 0.00 | 26 | 1004.1 |
| 20260905100049 | 54 | 162 | 0.0 | 0.0 | 0.00 | 0.00 | 0.00 | 27 | 1004.1 |
| 20260905094535 | 54 | 150 | 0.9 | 0.0 | 0.00 | 0.00 | 0.00 | 27 | 1004.1 |
| 20260905093035 | 54 | 184 | 0.9 | 0.0 | 0.00 | 0.00 | 0.00 | 27 | 1004.1 |
| 20260905091541 | 54 | 185 | 0.0 | 0.0 | 0.00 | 0.00 | 0.00 | 28 | 1004.0 |
| 20260905090032 | 53 | 133 | 0.9 | 0.0 | 0.00 | 0.00 | 0.00 | 28 | 1003.6 |
| 20260905084530 | 53 | 200 | 0.9 | 0.0 | 0.00 | 0.00 | 0.00 | 29 | 1003.7 |
| 20260905083031 | 54 | 161 | 0.9 | 0.0 | 0.00 | 0.00 | 0.00 | 29 | 1003.7 |
| 20260905081527 | 54 | 140 | 0.9 | 0.0 | 0.00 | 0.00 | 0.00 | 28 | 1003.9 |
| 20260905080034 | 54 | 124 | 0.9 | 0.0 | 0.00 | 0.00 | 0.00 | 29 | 1003.9 |
| 20260905074528 | 54 | 161 | 0.9 | 0.0 | 0.00 | 0.00 | 0.00 | 28 | 1003.9 |
| 20260905073027 | 54 | 126 | 0.9 | 0.0 | 0.00 | 0.00 | 0.00 | 28 | 1004.0 |
| 20260905071525 | 55 | 148 | 0.9 | 0.0 | 0.00 | 0.00 | 0.00 | 28 | 1003.9 |
| 20260905070031 | 55 | 168 | 0.0 | 0.0 | 0.00 | 0.00 | 0.00 | 28 | 1004.4 |
| 20260905064522 | 55 | 144 | 0.0 | 0.0 | 0.00 | 0.00 | 0.00 | 28 | 1004.5 |
| 20260905063022 | 55 | 167 | 0.0 | 0.0 | 0.00 | 0.00 | 0.00 | 29 | 1004.4 |
| 20260905061524 | 55 | 179 | 0.0 | 0.0 | 0.00 | 0.00 | 0.00 | 28 | 1004.5 |
| 20260905060037 | 55 | 150 | 0.0 | 0.0 | 0.00 | 0.00 | 0.00 | 27 | 1004.5 |
| 20260905054520 | 55 | 126 | 0.0 | 0.0 | 0.00 | 0.00 | 0.00 | 27 | 1004.4 |
| 20260905053019 | 55 | 133 | 0.0 | 0.0 | 0.00 | 0.00 | 0.00 | 27 | 1004.6 |
| 20260905051524 | 55 | 152 | 0.0 | 0.0 | 0.00 | 0.00 | 0.00 | 27 | 1004.6 |
| 20260905050021 | 56 | 131 | 0.0 | 0.0 | 0.00 | 0.00 | 0.00 | 28 | 1005.2 |
| 20260905044521 | 56 | 147 | 0.0 | 0.0 | 0.00 | 0.00 | 0.00 | 26 | 1005.1 |
| 20260905043016 | 56 | 157 | 0.0 | 0.0 | 0.00 | 0.00 | 0.00 | 26 | 1004.9 |
| 20260905041515 | 56 | 152 | 0.0 | 0.0 | 0.00 | 0.00 | 0.00 | 27 | 1004.8 |
| 20260905040014 | 56 | 145 | 0.0 | 0.0 | 0.00 | 0.00 | 0.00 | 28 | 1005.1 |
| 20260905034516 | 56 | 124 | 0.0 | 0.0 | 0.00 | 0.00 | 0.00 | 30 | 1004.9 |
| 20260905033013 | 56 | 164 | 0.0 | 0.0 | 0.00 | 0.00 | 0.00 | 34 | 1004.9 |
| 20260905031517 | 56 | 174 | 0.0 | 0.0 | 0.00 | 0.00 | 0.00 | 35 | 1004.5 |
| 20260905030015 | 56 | 160 | 0.0 | 0.0 | 0.00 | 0.00 | 0.00 | 34 | 1004.6 |
| 20260905024514 | 56 | 150 | 0.0 | 0.0 | 0.00 | 0.00 | 0.00 | 37 | 1004.7 |
| 20260905023015 | 56 | 137 | 0.0 | 0.0 | 0.00 | 0.00 | 0.00 | 40 | 1004.6 |
| 20260905021517 | 56 | 154 | 0.0 | 0.0 | 0.00 | 0.00 | 0.00 | 46 | 1004.4 |
| 20260905020007 | 56 | 193 | 0.0 | 0.0 | 0.00 | 0.00 | 0.00 | 50 | 1004.9 |
| 20260905014508 | 57 | 209 | 0.9 | 0.0 | 0.00 | 0.00 | 0.00 | 51 | 1005.0 |
| 20260905013003 | 57 | 205 | 1.7 | 0.0 | 0.00 | 0.00 | 0.00 | 48 | 1005.1 |
| 20260905011500 | 58 | 203 | 1.7 | 0.0 | 0.00 | 0.00 | 0.00 | 46 | 1004.6 |
| 20260905010100 | 59 | 210 | 2.6 | 0.0 | 0.00 | 0.00 | 0.00 | 42 | 1004.7 |
| 20260905004559 | 59 | 193 | 3.5 | 0.0 | 0.00 | 0.00 | 0.00 | 39 | 1004.9 |
| 20260905003059 | 60 | 278 | 3.5 | 0.0 | 0.00 | 0.00 | 0.00 | 36 | 1004.3 |
| 20260905001608 | 61 | 212 | 3.5 | 0.0 | 0.00 | 0.00 | 0.00 | 33 | 1004.6 |
| 20260904234557 | 62 | 202 | 2.6 | 0.0 | 0.00 | 0.00 | 0.00 | 30 | 1003.9 |
| 20260904233106 | 63 | 136 | 2.6 | 0.0 | 0.00 | 0.00 | 0.00 | 31 | 1004.1 |
| 20260904231556 | 63 | 205 | 2.6 | 0.0 | 0.00 | 0.00 | 0.00 | 28 | 1004.2 |
| 20260904230055 | 63 | 230 | 2.6 | 0.0 | 0.00 | 0.00 | 0.00 | 28 | 1004.3 |
| 20260904224554 | 64 | 208 | 2.6 | 0.0 | 0.00 | 0.00 | 0.00 | 28 | 1004.2 |
| 20260904223057 | 65 | 205 | 1.7 | 0.0 | 0.00 | 0.00 | 0.00 | 27 | 1004.3 |
| 20260904221555 | 64 | 106 | 2.6 | 0.0 | 0.00 | 0.00 | 0.00 | 26 | 1004.3 |
| 20260904220106 | 64 | 116 | 2.6 | 0.0 | 0.00 | 0.00 | 0.00 | 23 | 1004.4 |
| 20260904214553 | 64 | 213 | 2.6 | 0.0 | 0.00 | 0.00 | 0.00 | 26 | 1004.5 |
| 20260904213052 | 64 | 202 | 2.6 | 0.0 | 0.00 | 0.00 | 0.00 | 24 | 1004.5 |
| 20260904211551 | 65 | 220 | 1.7 | 0.0 | 0.00 | 0.00 | 0.00 | 26 | 1004.3 |
| 20260904210056 | 65 | 232 | 1.7 | 0.0 | 0.00 | 0.00 | 0.00 | 23 | 1004.1 |
| 20260904204548 | 66 | 162 | 1.7 | 0.0 | 0.00 | 0.00 | 0.00 | 22 | 1004.1 |
| 20260904203049 | 66 | 210 | 1.7 | 0.0 | 0.00 | 0.00 | 0.00 | 21 | 1004.2 |
| 20260904201558 | 65 | 186 | 1.7 | 0.0 | 0.00 | 0.00 | 0.00 | 23 | 1004.0 |
| 20260904200045 | 65 | 236 | 0.9 | 0.0 | 0.00 | 0.00 | 0.00 | 20 | 1004.0 |
| 20260904194538 | 64 | 131 | 2.6 | 0.0 | 0.00 | 0.00 | 0.00 | 24 | 1004.1 |
| 20260904193035 | 64 | 172 | 1.7 | 0.0 | 0.00 | 0.00 | 0.00 | 24 | 1004.3 |
| 20260904191535 | 63 | 198 | 3.5 | 0.0 | 0.00 | 0.00 | 0.00 | 24 | 1004.3 |
| 20260904190026 | 63 | 220 | 3.5 | 0.0 | 0.00 | 0.00 | 0.00 | 23 | 1005.0 |
| 20260904184525 | 63 | 248 | 2.6 | 0.0 | 0.00 | 0.00 | 0.00 | 22 | 1004.3 |
| 20260904183021 | 62 | 202 | 2.6 | 0.0 | 0.00 | 0.00 | 0.00 | 21 | 1004.6 |
| 20260904181516 | 63 | 141 | 1.7 | 0.0 | 0.00 | 0.00 | 0.00 | 22 | 1004.6 |
| 20260904180014 | 62 | 175 | 1.7 | 0.0 | 0.00 | 0.00 | 0.00 | 21 | 1004.2 |
| 20260904174522 | 61 | 205 | 1.7 | 0.0 | 0.00 | 0.00 | 0.00 | 26 | 1004.1 |
| 20260904173009 | 61 | 131 | 0.9 | 0.0 | 0.00 | 0.00 | 0.00 | 26 | 1004.6 |
| 20260904171507 | 60 | 141 | 0.9 | 0.0 | 0.00 | 0.00 | 0.00 | 26 | 1004.5 |
| 20260904170005 | 59 | 209 | 0.9 | 0.0 | 0.00 | 0.00 | 0.00 | 28 | 1003.9 |
| 20260904164505 | 59 | 196 | 0.9 | 0.0 | 0.00 | 0.00 | 0.00 | 29 | 1003.7 |
| 20260904163010 | 59 | 210 | 0.0 | 0.0 | 0.00 | 0.00 | 0.00 | 29 | 1003.9 |
| 20260904161501 | 58 | 206 | 0.9 | 0.0 | 0.00 | 0.00 | 0.00 | 30 | 1003.8 |
| 20260904160100 | 58 | 193 | 0.9 | 0.0 | 0.00 | 0.00 | 0.00 | 30 | 1004.2 |
| 20260904154559 | 57 | 196 | 0.9 | 0.0 | 0.00 | 0.00 | 0.00 | 31 | 1004.2 |
| 20260904153105 | 57 | 162 | 0.0 | 0.0 | 0.00 | 0.00 | 0.00 | 31 | 1004.0 |
| 20260904151555 | 56 | 188 | 0.0 | 0.0 | 0.00 | 0.00 | 0.00 | 32 | 1004.2 |
| 20260904150055 | 55 | 172 | 0.0 | 0.0 | 0.00 | 0.00 | 0.00 | 32 | 1004.2 |
| 20260904144554 | 54 | 179 | 0.0 | 0.0 | 0.00 | 0.00 | 0.00 | 33 | 1004.1 |
| 20260904143050 | 54 | 154 | 0.0 | 0.0 | 0.00 | 0.00 | 0.00 | 33 | 1004.5 |
| 20260904141548 | 53 | 167 | 0.0 | 0.0 | 0.00 | 0.00 | 0.00 | 34 | 1004.2 |
| 20260904140048 | 53 | 148 | 0.0 | 0.0 | 0.00 | 0.00 | 0.00 | 35 | 1003.9 |